This is the latest recevied weather packets stored in our database for station/object KC9NPJ-13. If no packets are shown the sender has not sent any weather packets the latest 10 day(s).
| Time | Temp. | Humidity | Pressure | Rain* | Wind** | Luminosity | Snow |
|---|---|---|---|---|---|---|---|
| 1778080736 | 11.11° C | 85% | 1016.9 hPa | 0 mm | - | - | - |
| 1778080436 | 11.11° C | 87% | 1016.9 hPa | 0 mm | - | - | - |
| 1778080136 | 11.11° C | 87% | 1016.7 hPa | 0 mm | - | - | - |
| 1778079836 | 10.56° C | 86% | 1016.8 hPa | 0 mm | - | - | - |
| 1778079536 | 10.56° C | 84% | 1016.5 hPa | 0 mm | - | - | - |
| 1778079237 | 10.56° C | 84% | 1016.3 hPa | 0 mm | - | - | - |
| 1778078937 | 10.56° C | 87% | 1016.4 hPa | 0 mm | - | - | - |
| 1778078636 | 10.56° C | 86% | 1016.1 hPa | 0 mm | - | - | - |
| 1778078337 | 10.56° C | 88% | 1016.2 hPa | 0 mm | - | - | - |
| 1778078037 | 10° C | 89% | 1016.2 hPa | 0 mm | - | - | - |
| 1778077737 | 10° C | 88% | 1016.2 hPa | 0 mm | - | - | - |
| 1778077437 | 10° C | 88% | 1016.3 hPa | 0 mm | - | - | - |
| 1778077137 | 10° C | 90% | 1016.4 hPa | 0 mm | - | - | - |
| 1778076837 | 10° C | 91% | 1016.1 hPa | 0 mm | - | - | - |
| 1778076537 | 10° C | 91% | 1016.1 hPa | 0 mm | - | - | - |
| 1778076237 | 9.44° C | 90% | 1016.1 hPa | 0 mm | - | - | - |
| 1778075937 | 9.44° C | 91% | 1016 hPa | 0 mm | - | - | - |
| 1778075637 | 9.44° C | 91% | 1015.9 hPa | 0 mm | - | - | - |
| 1778075337 | 9.44° C | 91% | 1016 hPa | 0 mm | - | - | - |
| 1778075037 | 9.44° C | 92% | 1015.7 hPa | 0 mm | - | - | - |
| 1778074737 | 9.44° C | 92% | 1015.6 hPa | 0 mm | - | - | - |
| 1778074437 | 8.89° C | 92% | 1015.6 hPa | 0 mm | - | - | - |
| 1778074137 | 8.89° C | 92% | 1015.4 hPa | 0 mm | - | - | - |
| 1778073837 | 8.89° C | 93% | 1015.7 hPa | 0 mm | - | - | - |
| 1778073537 | 8.89° C | 93% | 1015.7 hPa | 0 mm | - | - | - |
* Rain latest hour (hover to see other rain measurements)
** Current wind speed in m/s (hover to see current wind gust speed)